www.pogodaiklimat.ru

Погода и климат >> Архив погоды >> Австралия >> Западная Австралия >> Евкла


ПОГОДА в Евкле

  • Прогноз погоды в Евкле
  • Монитор погоды в Евкле

АРХИВ ПОГОДЫ в Евкле

Время (UTC), дата Ветер
(напр.,м/с)
 
Видим.   Явления Облачность Т
(С)
Тd
(С)
f
(%)
Тe
(С)
Тes
(С)
Комфортность P
(гПа)
Po
(гПа)
Тmin
(С)
Tmax
(С)
R
(мм)
R24
(мм)
S
(см)
07 19.03 В 6 20 км мгла 8/8 100 м
[Cu med, cong Ac trans Ci]
+21.6 +15.2 67 +25 +25 комфорт 1015.8 1004.9
09 19.03 В 6 н/о н/о +20.1 +14.9 72 +22 +22 комфорт 1015.5 1004.6
10 19.03 В 5 н/о н/о +19.5 +15.4 77 +21 +21 комфорт 1016.0 1005.1
12 19.03 В 4 н/о н/о +19.2 +15.5 79 +21 +21 комфорт 1017.0 1006.1
13 19.03 В 4 н/о н/о +19.3 +15.8 80 +21 +21 комфорт 1017.0 1006.1 +24.6
15 19.03 В 5 н/о н/о +19.2 +15.7 80 +21 +21 комфорт 1015.7 1004.8
16 19.03 В 4 н/о н/о +19.0 +15.9 82 +20 +20 1015.8 1004.9
18 19.03 В 5 н/о н/о +19.2 +15.9 81 +21 +21 комфорт 1015.2 1004.3
19 19.03 В 4 н/о н/о +18.8 +15.9 83 +20 +20 1014.9 1004.0
21 19.03 СВ 3 н/о н/о +18.1 +15.7 86 +19 +19 1015.6 1004.7
22 19.03 В 2 н/о н/о +17.6 +15.6 88 +18 +18 1016.4 1005.5
00 20.03 В 4 н/о н/о +21.7 +16.2 71 +25 +25 комфорт 1017.4 1006.5
01 20.03 В 5 20 км мгла 5/5 100 м
[Cu med, cong Ac trans]
+22.7 +16.7 69 +27 +30 душно 1017.7 1006.8 +17.4
03 20.03 В 7 н/о н/о +22.6 +16.2 67 +27 +27 душно 1016.6 1005.7
04 20.03 В 6 н/о н/о +23.2 +16.3 65 +28 +28 душно 1015.9 1005.0
06 20.03 В 7 н/о н/о +23.3 +17.1 68 +28 +28 душно 1014.7 1003.8
07 20.03 В 7 10 км мгла 3/3 200 м
[Cu hum Ac As Ci fib]
+22.3 +17.0 72 +27 +28 душно 1014.4 1003.5
09 20.03 В 6 н/о н/о +20.3 +17.3 83 +23 +23 комфорт 1014.7 1003.8
10 20.03 В 6 н/о н/о +20.1 +17.3 84 +23 +23 комфорт 1014.9 1004.0
12 20.03 В 6 н/о н/о +19.6 +17.2 86 +22 +22 комфорт 1016.0 1005.1
13 20.03 В 6 н/о н/о +19.6 +17.0 85 +22 +22 комфорт 1016.0 1005.1 +24.1
15 20.03 В 5 н/о н/о +19.6 +17.2 86 +22 +22 комфорт 1015.3 1004.4
16 20.03 В 5 н/о н/о +19.2 +17.3 89 +21 +21 комфорт 1014.7 1003.8
18 20.03 СВ 4 н/о н/о +18.7 +16.9 89 +20 +20 1014.4 1003.5
19 20.03 ЮВ 2 н/о н/о +18.6 +16.6 88 +20 +20 1014.6 1003.7
21 20.03 В 4 н/о н/о +18.7 +16.3 86 +20 +20 1014.9 1004.0
22 20.03 В 5 н/о н/о +18.6 +15.8 84 +19 +19 1015.5 1004.6
00 21.03 В 4 н/о н/о +19.8 +16.3 80 +22 +22 комфорт 1017.1 1006.2
01 21.03 В 4 5000 м слаб. морось 10/10 100 м
[Sc]
+20.1 +16.9 82 +23 +23 комфорт 1017.7 1006.8 +18.5
03 21.03 В 6 н/о н/о +21.4 +16.6 74 +25 +25 комфорт 1016.5 1005.6
04 21.03 В 6 н/о н/о +22.1 +16.8 72 +26 +26 душно 1015.4 1004.5
06 21.03 В 7 н/о н/о +22.6 +16.6 69 +27 +27 душно 1013.7 1002.8
07 21.03 В 7 5000 м слаб. морось 10/10 300 м
[Cu Sc]
+21.1 +16.3 74 +24 +24 комфорт 1013.3 1002.4
09 21.03 В 5 н/о н/о +20.1 +16.7 81 +23 +23 комфорт 1013.5 1002.6
10 21.03 В 4 н/о н/о +19.9 +16.5 81 +22 +22 комфорт 1013.5 1002.6
12 21.03 В 6 н/о н/о +19.4 +16.8 85 +21 +21 комфорт 1013.0 1002.1
13 21.03 В 7 н/о н/о +19.4 +17.0 86 +21 +21 комфорт 1012.9 1002.0 +23.0
15 21.03 В 7 н/о н/о +19.3 +17.1 87 +21 +21 комфорт 1012.0 1001.1
16 21.03 В 5 н/о н/о +19.2 +17.0 87 +21 +21 комфорт 1012.0 1001.1
18 21.03 СВ 2 н/о н/о +19.0 +16.6 86 +21 +21 комфорт 1012.4 1001.5
22 21.03 штиль 0 н/о н/о +18.7 +17.0 90 +20 +20 1013.7 1002.8
01 22.03 СВ 3 5000 м осадки на расстоянии {морось} 10/5 300 м
[Cu Sc As trans]
+21.0 +18.8 87 +26 +27 душно 1012.0 1001.1 +18.2
03 22.03 С 3 н/о н/о +23.6 +18.9 75 +28 +28 душно 1011.7 1000.8
04 22.03 Ю 3 н/о в посл. час дождь {туман} н/о +22.9 +18.0 74 +28 +28 душно 1010.9 1000.0
06 22.03 ЮВ 4 н/о н/о +21.6 +17.8 79 +26 +26 душно 1010.2 999.3
07 22.03 ЮВ 3 5000 м мгла 8/3 300 м
[Cu Sc As trans]
+21.3 +18.3 83 +26 +27 душно 1010.1 999.2
09 22.03 СВ 2 н/о н/о +21.7 +17.9 79 +26 +26 душно 1010.2 999.3
10 22.03 СВ 2 н/о н/о +20.2 +17.2 83 +24 +24 комфорт 1010.1 999.2
12 22.03 СВ 2 н/о н/о +18.2 +15.8 86 +19 +19 1011.1 1000.2
13 22.03 С 3 н/о н/о +18.1 +16.1 88 +19 +19 1011.2 1000.3 +24.5
15 22.03 С 1 н/о н/о +16.6 +15.1 91 +17 +17 1010.8 999.9
16 22.03 ЮЗ 3 н/о н/о +17.5 +16.2 92 +17 +17 1010.5 999.6
18 22.03 ЮЗ 2 н/о н/о +18.3 +17.3 94 +20 +20 1011.5 1000.6
19 22.03 З 2 н/о н/о +18.3 +17.5 95 +19 +19 1012.1 1001.2
21 22.03 Ю 3 н/о н/о +18.3 +17.5 95 +19 +19 1012.7 1001.8
22 22.03 Ю 3 н/о н/о +19.0 +18.2 95 +21 +21 комфорт 1013.1 1002.2
00 23.03 Ю 4 н/о н/о +20.9 +19.7 93 +26 +26 душно 1013.9 1003.0
01 23.03 ЮВ 4 15 км мгла 9/5 100 м
[Cu hum Ac As]
+22.4 +18.4 78 +28 +29 душно 1014.1 1003.2 +16.2
03 23.03 Ю 5 н/о н/о +22.8 +18.6 77 +29 +29 очень
душно
1014.4 1003.5
04 23.03 Ю 5 н/о н/о +21.3 +18.5 84 +26 +26 душно 1014.1 1003.2
06 23.03 Ю 6 н/о н/о +22.2 +17.3 74 +27 +27 душно 1013.5 1002.6
07 23.03 Ю 5 40 км {морось} 10/5 50 м
[Cu Sc Ac As]
+21.6 +16.6 73 +25 +26 комфорт 1013.7 1002.8
09 23.03 Ю 5 н/о н/о +20.1 +16.3 79 +23 +23 комфорт 1014.2 1003.3
10 23.03 ЮВ 4 н/о н/о +19.2 +16.6 85 +21 +21 комфорт 1014.6 1003.7
12 23.03 ЮВ 3 н/о н/о +19.5 +16.2 81 +22 +22 комфорт 1015.1 1004.2
13 23.03 В 2 н/о н/о +18.6 +15.8 84 +20 +20 1014.8 1003.9 +23.5
15 23.03 штиль 0 н/о н/о +16.7 +14.5 87 +17 +17 1013.6 1002.7
16 23.03 Ю 2 н/о н/о +17.5 +15.8 90 +18 +18 1013.3 1002.4
18 23.03 З 2 н/о н/о +17.5 +16.0 91 +18 +18 1012.0 1001.1
19 23.03 З 2 н/о в посл. час дождь {туман} н/о +17.9 +16.4 91 +19 +19 1012.3 1001.4
21 23.03 С 2 н/о н/о +16.0 +15.0 94 +16 +16 1012.6 1001.7
22 23.03 СЗ 2 н/о н/о +16.4 +15.4 94 +17 +17 1013.8 1002.9
00 24.03 З 3 н/о н/о +19.8 +15.9 78 +22 +22 комфорт 1014.7 1003.8
01 24.03 З 4 40 км 4/4 200 м
[Cu med, cong Ci fib]
+22.4 +15.3 64 +26 +30 жарко 1014.6 1003.7 +15.5
03 24.03 Ю 6 н/о н/о +23.4 +12.7 51 +26 +26 жарко 1013.7 1002.8
04 24.03 Ю 7 н/о {туман} н/о +23.9 +13.4 52 +26 +26 жарко 1013.2 1002.3
06 24.03 Ю 8 н/о н/о +23.0 +13.5 55 +26 +26 жарко 1012.5 1001.6
07 24.03 ЮЗ 8 20 км мгла 1/1 1000 м
[Cu hum Ci fib]
+22.3 +10.5 47 +24 +25 комфорт 1013.1 1002.2
09 24.03 ЮЗ 8 н/о н/о +20.1 +12.6 62 +21 +21 комфорт 1014.0 1003.1
10 24.03 ЮЗ 7 н/о н/о +19.1 +13.9 72 +20 +20 1014.8 1003.9
12 24.03 Ю 7 н/о н/о +18.4 +11.2 63 +18 +18 1016.1 1005.2
13 24.03 Ю 6 н/о н/о +18.2 +10.3 60 +18 +18 1016.5 1005.6 +24.8
15 24.03 Ю 5 н/о н/о +17.5 +8.1 54 +17 +17 1016.9 1006.0
16 24.03 Ю 4 н/о н/о +17.5 +9.7 60 +17 +17 1016.7 1005.8
18 24.03 Ю 4 н/о н/о +17.3 +8.4 56 +17 +17 1017.0 1006.1
19 24.03 Ю 5 н/о н/о +16.7 +7.9 56 +16 +16 1017.5 1006.6
21 24.03 Ю 4 н/о н/о +17.0 +7.9 55 +17 +17 1018.6 1007.7
22 24.03 Ю 5 н/о н/о +17.1 +9.5 61 +17 +17 1019.6 1008.6
00 25.03 ЮЗ 3 н/о н/о +17.3 +11.6 69 +17 +17 1021.3 1010.3
01 25.03 Ю 5 40 км {морось} 9/9 200 м
[Cu Sc]
+18.7 +10.3 58 +19 +19 1021.4 1010.4 +16.7
03 25.03 ЮВ 5 н/о н/о +21.0 +10.2 50 +23 +23 комфорт 1021.3 1010.3
04 25.03 Ю 6 н/о н/о +21.3 +10.2 49 +23 +23 комфорт 1021.0 1010.0
06 25.03 Ю 6 н/о н/о +20.8 +10.6 52 +23 +23 комфорт 1020.7 1009.7
07 25.03 Ю 6 40 км 3/3 100 м
[Sc diur, vesp]
+20.6 +10.7 53 +22 +24 комфорт 1021.0 1010.0
09 25.03 Ю 4 н/о н/о +17.8 +10.4 62 +18 +18 1021.9 1010.9
10 25.03 Ю 5 н/о н/о +17.3 +11.8 70 +17 +17 1022.3 1011.3
12 25.03 Ю 3 н/о н/о +16.7 +11.2 70 +16 +16 1023.3 1012.3
13 25.03 ЮВ 4 н/о н/о +16.7 +11.2 70 +16 +16 1023.4 1012.4 +22.4
15 25.03 Ю 3 н/о н/о +17.1 +10.7 66 +17 +17 1023.4 1012.4
16 25.03 В 4 н/о н/о +17.0 +11.9 72 +17 +17 1023.2 1012.2
18 25.03 ЮВ 3 н/о н/о +17.0 +10.4 65 +17 +17 1023.1 1012.1
19 25.03 ЮВ 3 н/о н/о +17.2 +10.1 63 +17 +17 1023.2 1012.2
21 25.03 ЮВ 3 н/о н/о +16.6 +10.2 66 +17 +17 1024.2 1013.2
22 25.03 Ю 2 н/о н/о +15.2 +12.7 85 +15 +15 1024.9 1013.9
00 26.03 ЮВ 4 н/о н/о +19.3 +11.8 62 +20 +20 1025.8 1014.8
01 26.03 В 4 40 км {морось} 5/5 300 м
[Cu med, cong]
+20.0 +11.2 57 +22 +25 комфорт 1025.8 1014.8 +15.2
03 26.03 ЮВ 4 н/о н/о +20.9 +11.3 54 +23 +23 комфорт 1025.0 1014.0
04 26.03 ЮВ 4 н/о н/о +21.3 +12.7 58 +24 +24 комфорт 1024.3 1013.3

 

Местоположение метеостанции Евкла (Западная Австралия, Австралия): широта -31.68 долгота 128.88 высота над уровнем моря 102 м.

В архиве по умолчанию представлена погода в Евкле за последнюю неделю. Архивные данные за месяц целиком и за предыдущие месяцы, начиная с января 2011 года, Вы можете получить, выбрав интересующий диапазон дат из раскрывающегося списка и нажав кнопку "Ввод!".


*Определитесь, кто Вы:
робот инопланетянин человек

Внимание! Время в таблицах - всемирное. Для получения местного времени необходимо прибавить поправку, которая равна 8 ч.

Смотрите также архив погоды в соседних городах и на ближайших метеорологических станциях:

Погода в Форресте (Западная Австралия, Австралия) (120 км)
Погода в Ред Рокс Пойнт (Западная Австралия, Австралия) (140 км)
Погода в Наллаборе (Южная Австралия, Австралия) (193 км)
Погода в Сидуне (Южная Австралия, Австралия) (458 км)
Погода в Таркуле (Южная Австралия, Австралия) (553 км)
Погода в Миннипа Пирса (Южная Австралия, Австралия) (604 км)
Погода в Кубер-Педи (Южная Австралия, Австралия) (632 км)
Погода в Уудинне (Южная Австралия, Австралия) (636 км)
Погода в Уорбертоне (Западная Австралия, Австралия) (657 км)
Погода в Колте (Южная Австралия, Австралия) (675 км)

Пояснения к столбцам:

Ветер - указаны скорость ветра в м/с - средняя за 10 мин, порывы в срок и между сроками (в фигурных скобках) и направление, откуда дует ветер: С - северный, СВ - северо-восточный, В - восточный, ЮВ - юго-восточный, Ю - южный, ЮЗ - юго-западный, З - западный, СЗ - северо-западный.
Видимость - горизонтальная дальность видимости в метрах или километрах. При видимости от 1 до 10 км при отсутствии осадков обычно наблюдается дымка, при ухудшении видимости до 1 км и менее - туман. В сухую погоду видимость может ухудшаться дымом, пылью или мглою.
Явления - указаны атмосферные явления, наблюдавшиеся в срок или в последний час перед сроком; фигурными скобками обозначены явления, наблюдавшиеся между сроками (за 1-3 часа до срока); квадратными скобками обозначены град или гололедные отложения с указанием их диаметра в мм.
Облачность - указаны через наклонную черту общая и нижняя облачность в баллах и высота нижней границы облаков в метрах; квадратными скобками обозначены формы облаков: Ci - перистые, Cs - перисто-слоистые, Cc - перисто-кучевые, Ac - высококучевые, As - высокослоистые, Sc - слоисто-кучевые, Ns - слоисто-дождевые, Cu - кучевые, Cb - кучево-дождевые. Подробнее классификацию облаков см. в Атласе облаков (PDF).
T - Температура воздуха - температура, измеренная на высоте 2 м над землей.
Td - Температура точки росы - температура, при понижении до которой содержащийся в воздухе водяной пар достигнет насыщения.
f - Относительная влажность воздуха - влажноcть воздуха, измеренная на высоте 2 м над землей.
Te - Эффективная температура - температура, которую ощущает одетый по сезону человек в тени. Характеристика душности погоды. При расчете учитывается влияние влажности воздуха и скорости ветра на теплоощущения человека.
Tes - Эффективная температура на солнце - температура, которую ощущает человек, с поправкой на солнечный нагрев. Характеристика знойности погоды. Зависит от высоты солнца над горизонтом, облачности и скорости ветра. Ночью, в пасмурную погоду, а также при ветре 12 м/с и более поправка равна нулю.
P - Атмосферное давление - приведенное к уровню моря атмосферное давление.
Po - Атмосферное давление - измеренное на уровне метеостанции атмосферное давление.
Tmin - Минимальная температура - минимум температуры воздуха на высоте 2 м над землей.
Tmax - Максимальная температура - максимум температуры воздуха на высоте 2 м над землей.
R - Количество осадков - Количество выпавших осадков за период времени, мм. При наведении курсора мыши на число - период времени, за который выпало указанное количество осадков.
R24 - Количество осадков - Количество выпавших осадков за 24 часа, мм.
S - Снежный покров - Высота снежного покрова, см. При наведении курсора мыши на число - состояние снежного покрова и степень покрытия местности в баллах.